Cleveland Burke, OH

12:46 PM EDT on June 23, 2017 (GMT -0400)
Burke Lakefront

Weather History for KBKL - November, 2012

Change the Weather History Date:

Monday, November 5, 2012

  Actual Average Record
Temperature  
Mean Temperature 38 °F -  
Max Temperature 39 °F 52 °F 77 °F (2015)
Min Temperature 37 °F 41 °F 34 °F (2011)
Degree Days  
Heating Degree Days 27    
Moisture  
Dew Point 29 °F    
Average Humidity 70    
Maximum Humidity 83    
Minimum Humidity 62    
Precipitation  
Precipitation 0.01 in - - ()
Sea Level Pressure  
Sea Level Pressure 30.18 in    
Wind  
Wind Speed 9 mph (NE)    
Max Wind Speed 14 mph    
Max Gust Speed -    
Visibility 10 miles    
Events Rain    
Averages and records for this station are not official NWS values.
T = Trace of Precipitation, MM = Missing Value Source: NWS Daily Summary

Daily Weather History Graph

Daily Weather History Graph

Search for Another Location

Airport or City:

Trip Planner

Search our weather history database for the weather conditions in past years. The results will help you decide how hot, cold, wet, or windy it might be!

Date:

Astronomy

Nov. 05, 2012 Rise Set
Actual Time 7:03 AM EST 5:16 PM EST
Civil Twilight 6:34 AM EST 5:45 PM EST
Nautical Twilight 6:01 AM EST 6:18 PM EST
Astronomical Twilight 5:29 AM EST 6:50 PM EST
Moon 10:52 PM EST (11/5) 12:22 PM EST (11/5)
Length of Visible Light 11h 10m
Length of Day
10h 12m
Waning Gibbous, 63% of the Moon is Illuminated
Nov 5
Waning Gibbous
Nov 6
Last Quarter
Nov 13
New
Nov 20
First Quarter
Nov 28
Full

Hourly Weather History & Observations

Time (EST) Temp. Windchill Dew Point Humidity Pressure Visibility Wind Dir Wind Speed Gust Speed Precip Events Conditions
12:53 AM 39.9 °F 32.1 °F 30.9 °F 70% 30.14 in 10.0 mi NNW 13.8 mph - N/A   Overcast
1:53 AM 39.9 °F 33.9 °F 32.0 °F 73% 30.14 in 10.0 mi NW 9.2 mph - N/A   Overcast
2:53 AM 39.9 °F 35.1 °F 30.9 °F 70% 30.13 in 10.0 mi North 6.9 mph - N/A   Overcast
3:53 AM 39.0 °F 32.3 °F 32.0 °F 76% 30.14 in 10.0 mi NNW 10.4 mph - N/A   Overcast
4:35 AM 39.2 °F 32.5 °F 32.0 °F 75% 30.13 in 10.0 mi NNE 10.4 mph - N/A   Overcast
4:53 AM 37.9 °F 30.0 °F 33.1 °F 83% 30.16 in 8.0 mi North 12.7 mph - 0.00 in Rain Light Rain
5:53 AM 39.0 °F 31.4 °F 30.0 °F 70% 30.16 in 10.0 mi North 12.7 mph - 0.00 in   Overcast
7:53 AM 37.9 °F 31.5 °F 28.9 °F 70% 30.19 in 10.0 mi North 9.2 mph - N/A   Overcast
8:53 AM 37.9 °F 31.5 °F 28.0 °F 68% 30.20 in 10.0 mi NE 9.2 mph - 0.01 in   Overcast
9:53 AM 39.0 °F 34.0 °F 28.0 °F 65% 30.20 in 10.0 mi NNE 6.9 mph - N/A   Overcast
10:53 AM 39.0 °F 32.8 °F 28.0 °F 65% 30.21 in 10.0 mi NE 9.2 mph - N/A   Overcast
11:46 AM 39.2 °F 33.0 °F 30.2 °F 70% 30.19 in 10.0 mi NNE 9.2 mph - N/A   Overcast
11:53 AM 39.0 °F 34.0 °F 30.0 °F 70% 30.20 in 10.0 mi NNE 6.9 mph - N/A   Overcast
12:53 PM 39.0 °F 32.8 °F 30.0 °F 70% 30.19 in 10.0 mi NNE 9.2 mph - 0.00 in   Overcast
1:53 PM 39.0 °F 34.0 °F 30.0 °F 70% 30.18 in 10.0 mi NE 6.9 mph - N/A   Overcast
2:42 PM 37.4 °F 30.3 °F 30.2 °F 75% 30.17 in 10.0 mi NNE 10.4 mph - 0.00 in   Overcast
2:53 PM 37.9 °F 33.5 °F 30.9 °F 76% 30.18 in 10.0 mi NE 5.8 mph - 0.00 in   Overcast
3:35 PM 37.4 °F 32.1 °F 30.2 °F 75% 30.17 in 10.0 mi NNE 6.9 mph - N/A   Overcast
3:53 PM 37.9 °F 33.5 °F 30.0 °F 73% 30.18 in 10.0 mi NNE 5.8 mph - N/A   Overcast
4:53 PM 37.9 °F 32.7 °F 28.0 °F 68% 30.18 in 10.0 mi ENE 6.9 mph - N/A   Overcast
5:53 PM 37.9 °F 34.4 °F 27.0 °F 65% 30.18 in 10.0 mi ESE 4.6 mph - N/A   Overcast
6:53 PM 37.9 °F 35.5 °F 28.0 °F 68% 30.19 in 10.0 mi ESE 3.5 mph - N/A   Overcast
7:53 PM 37.9 °F 35.5 °F 28.0 °F 68% 30.19 in 10.0 mi ESE 3.5 mph - N/A   Overcast
8:53 PM 37.9 °F 32.7 °F 27.0 °F 65% 30.20 in 10.0 mi SE 6.9 mph - N/A   Overcast
9:53 PM 37.9 °F 33.5 °F 26.1 °F 62% 30.19 in 10.0 mi SE 5.8 mph - N/A   Overcast
10:53 PM 37.0 °F 32.4 °F 26.1 °F 65% 30.19 in 10.0 mi ESE 5.8 mph - N/A   Overcast
11:53 PM 37.0 °F 32.4 °F 26.1 °F 65% 30.18 in 10.0 mi SSE 5.8 mph - N/A   Overcast